[[{"header":{"parameterUnit":"m.s-1","parameterCategory":1,"la1":30.2992,"la2":30.254,"lo1":-89.0895,"lo2":-89.0443,"dy":0.0025,"dx":0.0025,"nx":19,"ny":19,"refTime":"2026-05-07T03:00:00:Z","depth":0,"parameterNumber":2,"parameterNumberName":"U-component_of_WINDS"},"data":[0,0,0,3.3703,3.3708,3.3934,3.3935,3.4236,3.4238,0,0,0,0,0,0,0,0,0,0,0,3.3639,3.3641,3.3702,3.3708,3.3934,3.3935,3.4235,3.4238,0,0,0,0,0,0,0,0,0,0,0,3.3638,3.364,3.3643,3.3709,3.3934,3.3935,3.4234,3.4061,0,0,0,0,0,0,0,0,0,0,3.3839,3.3782,3.364,3.3643,3.371,3.3934,3.3935,3.4052,3.4072,3.4137,0,3.4192,0,3.422,3.4259,3.426,0,0,0,3.3707,3.3766,3.3824,3.3643,3.3712,3.3933,3.3832,3.4063,3.4085,3.4163,3.4197,3.4207,3.4225,3.4261,3.4262,3.4636,3.4637,0,0,3.3694,3.3682,3.3809,3.3838,3.38,3.3825,3.3839,3.4076,3.4114,3.4198,3.4214,3.423,3.4263,3.4265,3.4634,3.4636,0,0,0,3.3659,3.3673,3.3725,3.3826,3.3866,3.3831,3.3848,3.4103,3.4121,3.4218,3.4233,3.4265,3.4268,3.4632,3.4635,3.4711,0,0,0,3.3652,3.3653,3.372,3.3715,3.3862,3.3987,3.3869,3.4104,3.4132,3.4232,3.4265,3.4271,3.463,3.4633,3.4705,3.475,0,0,0,3.3623,3.365,3.3683,3.3714,3.381,3.3983,3.4014,3.4111,3.4142,3.426,3.4272,3.4629,3.4633,3.4699,3.4741,3.4845,0,0,0,3.359,3.3749,3.3684,3.3868,3.3808,3.4027,3.4013,3.4178,3.4289,3.4266,3.463,3.4634,3.4697,3.4735,3.4839,3.4931,3.4967,0,0,3.3784,3.3772,3.3881,3.383,3.4057,3.3994,3.4234,3.4349,3.4373,3.4548,3.4557,3.4707,3.474,3.4844,3.5177,3.5206,0,0,0,3.3938,3.4017,3.408,3.4183,3.4273,3.4355,3.4433,3.4476,3.4624,3.4459,3.4773,3.4793,3.4855,3.4899,3.4924,3.4978,3.4654,3.4654,3.4653,3.4195,3.4215,3.4398,3.4447,3.4548,3.4627,3.4713,3.4785,3.4777,3.4851,3.4903,3.5102,3.5154,3.5173,3.5229,3.4953,3.4953,3.4954,3.4954,3.4481,3.4596,3.4581,3.4753,3.4776,3.4922,3.5007,3.4996,3.5138,3.5065,3.512,3.5038,3.5204,3.5254,3.496,3.4959,3.4958,3.4957,3.4957,3.4652,3.471,3.4758,3.4911,3.5027,3.5072,3.5209,3.5225,3.5241,3.5296,3.5353,3.5352,3.5354,3.5322,3.5323,3.5323,3.5324,3.5324,3.5325,3.481,3.4862,3.4973,3.5082,3.5151,3.5245,3.5328,3.5398,3.5481,3.5482,3.5483,3.5469,3.5215,3.5151,3.5336,3.5334,3.5332,3.5331,3.5331,3.5093,3.5032,3.5203,3.5273,3.5404,3.5519,3.5538,3.568,3.574,3.5808,3.5783,3.5592,3.5582,3.5563,3.551,3.5776,3.5776,3.5776,3.5776,3.5238,3.5233,3.5413,3.5523,3.5634,3.5668,3.5866,3.5933,3.5994,3.6034,3.5998,3.5929,3.5908,3.5911,3.5884,3.5835,3.6178,3.6178,3.6179,3.5414,3.5421,3.5584,3.5639,3.5744,3.5834,3.602,3.6151,3.6208,3.6196,3.6065,3.6049,3.5938,3.5901,3.5886,3.5843,3.5754,0,0]},{"header":{"parameterUnit":"m.s-1","parameterCategory":1,"la1":30.2992,"la2":30.254,"lo1":-89.0895,"lo2":-89.0443,"dy":0.0025,"dx":0.0025,"nx":19,"ny":19,"refTime":"2026-05-07T03:00:00:Z","depth":0,"parameterNumber":3,"parameterNumberName":"V-component_of_WINDS"},"data":[0,0,0,-0.3475,-0.347,-0.3208,-0.3207,-0.286,-0.2856,0,0,0,0,0,0,0,0,0,0,0,-0.3548,-0.3546,-0.3476,-0.3469,-0.3208,-0.3207,-0.286,-0.2856,0,0,0,0,0,0,0,0,0,0,0,-0.355,-0.3547,-0.3544,-0.3468,-0.3208,-0.3207,-0.2861,-0.3062,0,0,0,0,0,0,0,0,0,0,-0.3317,-0.3382,-0.3547,-0.3543,-0.3466,-0.3208,-0.3207,-0.3072,-0.3049,-0.2974,0,-0.2909,0,-0.2878,-0.2833,-0.2831,0,0,0,-0.3471,-0.34,-0.3335,-0.3543,-0.3464,-0.3209,-0.3326,-0.3059,-0.3034,-0.2944,-0.2904,-0.2892,-0.2872,-0.283,-0.2829,-0.24,-0.2398,0,0,-0.3485,-0.3498,-0.3352,-0.3318,-0.3362,-0.3335,-0.3318,-0.3044,-0.2999,-0.2903,-0.2884,-0.2866,-0.2828,-0.2825,-0.2402,-0.2399,0,0,0,-0.3525,-0.3508,-0.3449,-0.3332,-0.3286,-0.3327,-0.3308,-0.3012,-0.2992,-0.288,-0.2862,-0.2826,-0.2822,-0.2404,-0.2401,-0.2312,0,0,0,-0.3534,-0.3531,-0.3455,-0.346,-0.3291,-0.3146,-0.3282,-0.3011,-0.2979,-0.2864,-0.2826,-0.2818,-0.2406,-0.2402,-0.232,-0.2267,0,0,0,-0.3567,-0.3535,-0.3497,-0.3461,-0.335,-0.3151,-0.3115,-0.3004,-0.2968,-0.2831,-0.2817,-0.2408,-0.2403,-0.2326,-0.2277,-0.2158,0,0,0,-0.3603,-0.3418,-0.3495,-0.3281,-0.3352,-0.31,-0.3117,-0.2926,-0.2798,-0.2824,-0.2406,-0.2401,-0.2328,-0.2284,-0.2166,-0.206,-0.2018,0,0,-0.3376,-0.3391,-0.3264,-0.3326,-0.3064,-0.3139,-0.2861,-0.2729,-0.2702,-0.2501,-0.249,-0.2317,-0.2278,-0.216,-0.1779,-0.1746,0,0,0,-0.3195,-0.3104,-0.3032,-0.2914,-0.2813,-0.2721,-0.2632,-0.2583,-0.2413,-0.2603,-0.2242,-0.2218,-0.2148,-0.2097,-0.2069,-0.2008,-0.2379,-0.2379,-0.238,-0.2888,-0.2869,-0.2658,-0.2608,-0.2492,-0.2405,-0.2309,-0.2228,-0.2237,-0.2153,-0.2092,-0.1864,-0.1805,-0.1784,-0.172,-0.2036,-0.2036,-0.2036,-0.2035,-0.2552,-0.2419,-0.2444,-0.2247,-0.2227,-0.206,-0.1969,-0.1983,-0.1823,-0.1907,-0.1845,-0.1938,-0.1748,-0.1691,-0.2028,-0.203,-0.203,-0.2031,-0.2032,-0.2347,-0.228,-0.2229,-0.2059,-0.1929,-0.1884,-0.1732,-0.1718,-0.1703,-0.1641,-0.1576,-0.1577,-0.1576,-0.1612,-0.1611,-0.161,-0.1609,-0.1609,-0.1608,-0.2154,-0.2099,-0.1975,-0.1856,-0.178,-0.1678,-0.1591,-0.1514,-0.1426,-0.1427,-0.1426,-0.1444,-0.1735,-0.1807,-0.1596,-0.1598,-0.16,-0.1601,-0.1602,-0.1817,-0.1893,-0.17,-0.1625,-0.1485,-0.1358,-0.1345,-0.1191,-0.1126,-0.1051,-0.1084,-0.1301,-0.1313,-0.1335,-0.1395,-0.109,-0.109,-0.109,-0.109,-0.1643,-0.1651,-0.1453,-0.1334,-0.1215,-0.1185,-0.0966,-0.0897,-0.0837,-0.0795,-0.0838,-0.0917,-0.0941,-0.0938,-0.0969,-0.1024,-0.0632,-0.0631,-0.0631,-0.1435,-0.1431,-0.1248,-0.1196,-0.1087,-0.0993,-0.0787,-0.0646,-0.0593,-0.0612,-0.0762,-0.0781,-0.0908,-0.0951,-0.0969,-0.1018,-0.1119,0,0]}]]